a   3.6795571      Node   119.25930     +0.78181364     -0.52026949

e   0.4532145      Incl.    6.59552     +0.34356383     -0.10045936

P   7.06

From 193 observations 1970-2001, weighting mean residual 1".00.

Residuals in seconds of arc 

1970/                     860211 691  0.8-  0.2-    001208 349  1.0+  1.4-  

701227 380 (0.1+  3.2+)   860211 691  0.7-  0.1+    001220 118  0.2+  0.3+  

701227 380 (1.5-  4.7+)   1992/                     001220 118  0.5-  0.0   

701229 380 (6.3+  1.2-)   921021 691  0.2+  0.1+    001220 118  0.2+  0.2-  

701229 380  0.4+  1.3-    921021 691  0.1+  0.3+    2001/                   

701231 370  1.9+  0.1+    921021 691  1.1+  1.5+    010101 349  0.5+  1.5-  

701231 370 (2.7+  1.5+)   921201 691  0.3+  0.7+    010101 349  1.4+  0.1+  

1971/                     921201 691  1.0+  0.6+    010101 349  0.8+  0.9+  

710101 380  0.1+  0.3+    921201 691  1.5+  0.3-    010104 704  0.3+  0.5+  

710101 370  1.9+  1.6-    921201 691  0.3-  0.7+    010104 704  0.7+  0.1+  

710105 822 (9.2+  2.2-)   1993/                     010104 704  0.7-  0.4+  

710105 822 (1.0-  3.7-)   930123 691  0.5+  0.6+    010104 704  0.4+  1.6+  

710105 387  1.2+  1.3+    930123 691  1.4+  0.5+    010104 704  1.2+  0.7+  

710105 387  0.0   1.8+    930123 691 (2.2+  1.2-)   010119 704  0.1+  1.5+  

710105 370  0.9-  0.2+    931209 691 (2.2+  0.8-)   010119 704  0.6-  1.1+  

710106 387  1.8+  0.2-    931209 691  1.0+  0.7-    010119 704  0.1-  0.9+  

710108 380 (3.9+  0.7+)Y  931209 691  0.4+  0.7-    010130 704  1.3+  2.0-  

710121 370  0.4+  0.5+    931223 411  0.5+  1.0-    010130 704  1.8+  0.1-  

710121 370  0.5+  0.7-    931223 411  0.9+  0.4-    010130 704  1.6+  1.3+  

710123 693  1.6+  0.4+    931223 411  0.8+  0.1+    010201 704  0.3-  0.2+  

710123 693  1.2+  0.6+    1994/                     010201 704  1.1-  2.0+  

710123 370 (2.8+  0.9-)   940107 691  1.5+  0.8-    010201 704  0.0   0.1+  

710125 370  1.1+  1.5+    940107 691  0.6+  1.2-    010201 704  1.7+  0.2-  

710126 046  0.3+  1.3+    940107 691  0.6+  1.2-    010204 170  1.0-  0.5+  

710126 693 (3.0+  1.6+)   940108 385  1.3+  1.3-    010204 170  0.2-  0.9+  

710130 046  0.3+  2.1-    940108 385  0.9+  1.3-    010204 170  0.4+  0.7+  

710131 046  0.3-  0.8-    940108 385  0.7+  0.5-    010217 704  0.9+  0.0   

710202 370  1.5-  1.2+    940108 360  1.1+  1.2-    010217 704  0.6-  1.5+  

710202 370  0.9-  2.4-    940108 360  0.9+  1.1-    010217 704 (0.9-  3.2+) 

710203 370  0.0   0.9+ Y  940114 887  1.7+  1.9-    010220 903  1.4-  1.4-  

710223 370 (1.1+  2.7+)   940114 887  1.5+  1.3-    010220 903  1.5-  1.2-  

710227 370  2.3-  0.5-    940115 887  0.3+  0.3+    010220 903  1.6-  1.6-  

710228 693  2.0+  0.4-    940115 372  0.3-  1.1-    010222 903 (3.0-  0.3+) 

710228 693  1.4+  0.4-    940115 887  0.3+  0.1-    010222 903 (2.6-  2.4+) 

710303 370 (1.3-  2.8+)   940115 372 (3.7+  1.6-)   010226 360  0.1-  0.3+  

710323 370  1.2-  1.2+ Y  940202 897 (2.6+  0.5-)   010226 360  0.4-  0.1+  

710327 693  1.9+  1.0-    940202 897 (2.4+  2.0-)   010302 349  1.2-  0.4+  

710327 693  2.1+  1.3-    940202 897 (1.6+  2.2-)   010302 349  0.5-  1.0+  

710401 691  1.8+  1.5-    940203 360  1.7+  1.4-    010318 608  1.2+  0.9+  

710401 691  1.8+  1.6-    940203 360  1.9+  1.5-    010318 608  0.7+  0.2+  

710421 691  0.8+  0.6-    940210 897 (2.3+  0.2-)   010318 608  0.3+  1.3+  

710421 691  0.9+  0.7-    940210 897  0.7+  1.6-    010321 699  1.5-  0.7+  

710430 693 (4.0+  0.0 )   940212 675  0.2+  1.1-    010321 699 (2.3-  0.4-) 

710430 693 (4.5+  0.4-)   940212 675  1.5+  1.0-    010321 699 (2.7-  0.9+) 

710527 693 (2.7+  0.8-)   940215 675 (1.0+  2.7-)   010321 699 (2.2-  0.3+) 

710527 693 (2.7+  0.4-)   940215 675 (0.8+  3.5-)   010321 691  0.2-  0.8+  

710619 693 (2.7+  1.1+)   940310 360  1.5+  0.7-    010321 691  0.1+  1.7+  

710619 693  2.4+  0.8+    940310 360  1.5+  1.4-    010321 691  1.0-  1.6+  

710627 691  1.3+  0.1+    940317 360  1.3+  0.7-    010321 360  0.1-  0.7+  

710627 691  1.4+  0.3-    940317 360  1.1+  0.5-    010321 360  0.1-  0.6+  

1977/                     940406 691  0.9+  0.9-    010321 402  0.2-  0.7+  

771112 801  2.4-  1.3+    940406 691  0.9+  0.8-    010321 402  0.0   0.7+  

771115 801 (3.5-  2.6+)   940406 691  0.7+  0.9-    010321 402  0.3+  0.6+  

771205 372 (4.1-  1.8-)   940413 360 (0.8+  2.1-)   010323 170 (2.2-  0.5+) 

771205 372 (3.4-  0.1-)   940413 360  0.5+  1.7-    010327 608  1.1+  1.2+  

771208 801  2.1-  0.4+    940505 691  0.2+  0.5-    010327 608  0.7+  1.3+  

771208 675 (3.0-  0.4+)   940505 691  0.3+  0.4-    010327 608  0.6+  1.2+  

771209 675  1.5-  0.8+    940505 691  0.3-  0.6-    010330 704  0.0   0.4+  

771209 381 (3.1-  0.6+)   940506 360  0.7+  0.8+    010330 704  0.9+  0.3+  

771210 801  0.6-  2.0-    940506 360  1.6+  1.1-    010330 704  0.6-  0.1-  

771210 381  2.1-  0.5+    940614 691  0.8+  0.2+    010330 704  0.2-  0.3+  

771210 381  1.9-  0.2-    940614 691  0.2-  1.3-    010330 704  0.6-  0.3+  

771220 372 (3.7-  1.9-)   940614 691 (4.2+  0.2-)   010331 170  0.3-  0.5-  

1978/                     1999/                     010415 704  0.6-  0.5+  

780107 381 (4.8-  2.0+)   991112 695  2.0+  1.5+    010415 704  0.4-  0.7+  

780114 879 (4.2-  1.4-)   991112 695  2.3+  1.6+    010415 704  0.3-  1.0+  

780114 879  2.5-  1.1+    2000/                     010415 704  0.4-  0.1-  

780205 801  2.3-  1.9-    001106 372 (0.4+  2.3-)   010415 704  0.1+  1.0+  

780302 381  1.7-  0.7-    001128 372  0.8+  0.8-    010423 699  1.6-  0.1-  

780313 801  1.2+  0.7-    001128 372  1.2+  0.6+    010423 699  0.7-  0.0   

1985/                     001128 360  1.2+  0.2-    010423 699  1.5-  0.3-  

851019 691  0.3+  0.6+    001128 360  1.0+  0.1-    010423 699  1.6-  0.5+  

851019 691  0.8+  0.1+    001201 372  0.2+  0.8+    010424 699  0.4-  0.2-  

851022 372  0.4-  0.9-    001204 170  1.1+  1.0-    010424 699 (2.6-  0.5+) 

851115 691 (2.6-  0.8+)   001204 372  0.4+  0.7+    010424 699  0.4-  0.3-  

851115 691  0.1-  0.1-    001204 372  0.3+  1.3+    010424 699  0.8-  0.4+  

851115 691  1.8-  0.0     001205 360  0.6+  0.0     010428 170  0.4-  0.6+  

851120 691  0.5-  0.5-    001205 360  0.8+  0.2-    010502 644  0.6+  0.0   

851120 691  0.7-  0.5+    001207 300  0.3+  0.8-    010502 644  0.7+  0.0   

851120 691  1.2-  0.6-    001207 300  0.2+  0.5-    010502 644  0.7+  0.3-  

851218 691  1.6-  0.0     001207 300  0.9+  0.2-    010516 360  0.1-  0.3+  

851218 691  0.9-  0.2+    001207 300  0.6+  0.6-    010516 360  0.2+  0.4+  

851218 691  1.4-  0.1+    001208 349  0.9+  0.1+                            

1986/                     001208 349  1.9+  0.9+                            





 136P/Mueller 3 

Epoch 2007 Oct. 27.0 TT = JDT 2454400.5  

T 2007 Oct. 22.24384 TT                                 Nakano

q   2.9606526            (2000.0)            P               Q

n   0.11502375     Peri.  224.86540     +0.99267410     -0.04879617

a   4.1873993      Node   137.56104     +0.07835482     +0.95635730

e   0.2929615      Incl.    9.42735     -0.09197094     +0.28809658

P   8.57

From 100 observations 1990-1999, mean residual 0".83.

Residuals in seconds of arc 

1990/                     980811 402  0.5+  0.4-    990917 691  0.2-  0.6-  

900917 675  1.3+  1.8+    980811 402  1.5-  0.1+    990917 691  0.1-  0.4-  

900917 675 (2.5-  1.6-)   980811 402  1.1-  0.2+    991018 867  0.1+  0.4-  

900919 675  1.0-  1.4-    980817 704 (2.2-  0.0 )   991018 867  0.0   0.1-  

900919 675  1.2-  0.5-    980817 704  0.1-  1.7-    991019 704  0.8-  0.3-  

900924 675 (2.9-  3.1-)   980817 704  0.9-  0.8-    991019 704  1.2-  0.5-  

900924 675 (2.3+  2.2+)   980817 704  0.5+  0.8-    991019 704  0.2+  0.9-  

900925 675 (8.7-  3.6-)   980817 704  1.6-  0.3+    991019 704  0.8-  0.2-  

900925 675 (3.4-  0.9+)   980831 691  0.1-  0.5+    991105 704  0.2-  0.6-  

900930 372 (3.3-  0.1-)   980831 691  0.2-  0.3+    991105 704  0.2+  0.0   

900930 372 (3.5-  0.0 )   980831 691  0.2-  0.5+    991105 704  0.6+  0.9-  

901016 801  0.2-  0.5+    980831 360  0.4+  0.0     991105 704  0.1+  0.8-  

901019 372  1.4-  0.5+    980831 360  0.8+  0.4+    991105 402  0.8+  0.6-  

901020 372  0.7-  0.5-    980831 360  0.6+  0.2+    991105 402  0.2-  0.4-  

901021 801  0.5-  0.2+    980912 402  1.8+  0.2-    991105 402  0.9+  0.3-  

901114 801  0.3+  0.1-    980912 402  1.5+  0.5-    991108 360  0.1-  0.3-  

901114 801  0.4-  0.3+    980912 402  1.7+  0.2+    991108 360  0.3+  0.3-  

901119 413  1.6+  0.2-    980916 360  0.8+  1.4+    991108 360  0.1+  0.0   

901121 372  0.4-  0.3-    980916 360  0.8+  1.2+    991113 695  0.2+  0.1-  

901123 372  1.9+  1.1-    980917 360  1.0+  0.7+    991113 695  0.5-  0.2-  

901207 372  1.0-  1.9+    980917 360  0.9+  0.5+    991113 402  0.2+  0.6-  

901215 801  0.5+  1.8+    980924 699  1.1+  1.3+    991113 402  0.3-  0.4-  

901215 801  1.0+  0.3-    980924 699  0.5+  1.7+    991129 352  0.3-  0.4+  

1998/                     980924 699  1.2-  1.5-    991129 352  0.2-  0.4+  

980524 691 (0.2-  2.5-)   981015 691  0.4+  0.0     991130 897  0.4+  0.2+  

980524 691  0.4-  1.3-    981015 691  1.2+  0.5+    991130 897  0.1+  1.0+  

980524 691  0.2-  1.8-    981015 691  0.5+  0.6+    991130 897  0.7+  1.3+  

980526 691  1.5-  1.2-    981021 360  0.9+  1.9+    991130 360  0.6+  0.3-  

980526 691  0.0   1.1-    981021 360  0.4+  1.2+    991130 360  0.1+  0.3-  

980526 691  0.4-  1.5-    981021 360  0.8+  0.9+    991202 897  1.0-  1.3+  

980619 696  0.5-  0.7-    981115 360  0.7-  0.1-    991202 897  0.3+  0.9+  

980619 696  0.5-  0.9-    981115 360  0.1+  0.4+    991205 704  0.9+  0.4-  

980619 696  0.4-  0.8-    981115 360  0.1-  0.7+    991205 704  1.3+  1.3+  

980623 691  0.7-  0.4-    1999/                     991205 704  0.6+  1.2+  

